Regional Weather Roundup
Issued by NWS

Home | Current Version | Previous Version | Graphics & Text | Print | Product List | Glossary On
Versions: 1 2 3 4 5 6 7 8 9 10 11 12 13 14 15 16 17 18 19 20 21 22 23 24 25 26 27 28 29 30 31 32 33 34 35 36 37 38 39 40 41 42 43 44 45 46 47 48 49 50
000
ASUS43 KMKX 211521
RWRWI

WISCONSIN REGIONAL WEATHER ROUNDUP
NATIONAL WEATHER SERVICE MILWAUKEE/SULLIVAN WI
1000 AM CDT THU SEP 21 2017

NOTE: "FAIR" INDICATES FEW OR NO CLOUDS BELOW 12,000 FEET WITH NO
SIGNIFICANT WEATHER AND/OR OBSTRUCTIONS TO VISIBILITY.

WIZ001-002-006>008-014>016-023>028-211600-
NORTHWEST WISCONSIN

CITY           SKY/WX    TMP DP  RH WIND       PRES   REMARKS
SUPERIOR ARPT  SUNNY     60  56  87 NE6       30.04S
ASHLAND        SUNNY     62  54  74 CALM      30.04F
HAYWARD        SUNNY     64  53  67 E6        30.03F
SIREN          SUNNY     62  52  69 E5        30.01F
CUMBERLAND     SUNNY     63  52  67 E7        30.02F
RICE LAKE      SUNNY     65  54  67 E9        30.03F
CHETEK         SUNNY     63  55  77 E7        30.02F
LADYSMITH      SUNNY     66  56  71 E9        30.05S
EAU CLAIRE     SUNNY     65  57  75 VRB5      30.00F
MENOMONIE      SUNNY     64  57  79 E5        30.01F
NEW RICHMOND   SUNNY     65  55  67 SE8       29.99F
OSCEOLA        SUNNY     65  54  66 E10       30.01F
$$

WIZ003>005-009-010-017-018-211600-
NORTH CENTRAL WISCONSIN

CITY           SKY/WX    TMP DP  RH WIND       PRES   REMARKS
MANITOWISH WTR SUNNY     62  60  94 NE5       30.06S
ARBOR VITAE    SUNNY     64  58  80 E8        30.06S
WOODRUFF       SUNNY     64  58  80 E8        30.06S
RHINELANDER    MOSUNNY   64  60  87 E8        30.08R
EAGLE RIVER    SUNNY     65  55  69 SE6       30.07S
LAND O LAKES   MOSUNNY   64  55  72 E8        30.09S
PHILLIPS       SUNNY     63  57  82 SE5       30.05S
TOMAHAWK         N/A     64  62  91 E5        30.06S
MEDFORD        SUNNY     66  59  78 SE8       30.05S
MERRILL        NOT AVBL
$$

WIZ029-030-035-036-043>047-211600-
CENTRAL WISCONSIN

CITY           SKY/WX    TMP DP  RH WIND       PRES   REMARKS
WAUSAU         MOSUNNY   67  62  84 E9        30.03S
MOSINEE        CLOUDY    66  66 100 E5        30.05S
MARSHFIELD     CLOUDY    67  63  87 E8        30.03S FOG
STEVENS POINT  CLOUDY    65  65 100 E9        30.04F FOG
WAUPACA        CLOUDY    69  69  98 NE5       30.04S FOG
WAUTOMA        CLOUDY    67  67 100 E8        30.04S FOG
WISC RAPIDS    CLOUDY    68  67  96 E8        30.04S FOG
CAMP DOUGLAS   FOG       64  64 100 CALM      30.02S VSB 1/4
$$

WIZ011>013-019>022-031-037>040-048>050-211600-
NORTHEAST WISCONSIN

CITY           SKY/WX    TMP DP  RH WIND       PRES   REMARKS
ANTIGO         MOSUNNY   67  59  73 E10       30.07R
SHAWANO        CLOUDY    70  65  82 NE3       30.04F
OCONTO         CLOUDY    69  64  82 CALM      30.04R
STURGEON BAY   CLOUDY    68  65  90 N5        30.04R
GREEN BAY      CLOUDY    69  67  93 NE10      30.04R
MANITOWOC      PTSUNNY   73  68  83 CALM      30.04R
APPLETON       CLOUDY    66  66 100 NE8       30.03R FOG
CLINTONVILLE   NOT AVBL
OSHKOSH        CLOUDY    70  68  93 CALM      30.03R
$$

WIZ032>034-041-042-053>061-211600-
SOUTHWEST WISCONSIN

CITY           SKY/WX    TMP DP  RH WIND       PRES   REMARKS
LA CROSSE      CLOUDY    66  61  82 SE6         N/A
SPARTA         CLOUDY    58  58 100 E7        30.01F
VIROQUA        CLOUDY    68  67  95 E9        30.02R
BOSCOBEL       CLOUDY    74  69  85 NE5       30.00S
PRAIRIE DU CHI PTSUNNY   71  67  89 CALM      29.99S
PLATTEVILLE    CLOUDY    73  71  93 E6        30.03R
$$

WIZ056-057-062-063-064-067-068-211600-
SOUTH CENTRAL WISCONSIN

CITY           SKY/WX    TMP DP  RH WIND       PRES   REMARKS
REEDSBURG      CLOUDY    68  68 100 CALM      30.02R FOG
BARABOO/DELLS    N/A    N/A N/A N/A MISG        N/A
LONE ROCK      PTSUNNY   72  71  97 SE8       30.01R FOG
MINERAL POINT  CLOUDY    73  72  94 E3        30.03R
MADISON        PTSUNNY   73  71  93 E7        30.03R FOG
MIDDLETON      CLOUDY    74  74 100 E7        30.04R
WATERTOWN      CLOUDY    74  73  94 S3        30.04R
MONROE         CLOUDY    72  64  78 E3        30.04S
JANESVILLE     PTSUNNY   79  57  47 CALM      30.02  HX  80
$$

WIZ051-052-058>065-066-070>072-211600-
SOUTHEAST WISCONSIN

CITY           SKY/WX    TMP DP  RH WIND       PRES   REMARKS
MILWAUKEE      PTSUNNY   79  69  71 CALM      30.02R HX  81
WAUKESHA       MOSUNNY   73  66  78 E5        30.05R
MILWAUKEE/TIMM SUNNY     73  64  73 E3        30.04R
RACINE         MOSUNNY   78  69  73 N6        30.04R HX  80
BURLINGTON     CLOUDY    84  68  57 CALM      30.03R HX  87
KENOSHA        MOSUNNY   84  66  54 E6        30.03R HX  86
FOND DU LAC    CLOUDY    74  67  78 CALM      30.03R
SHEBOYGAN      PTSUNNY   76  71  85 NE5       30.02S
WEST BEND        N/A     73  68  83 E3        30.04R
JUNEAU         PTSUNNY   72  68  88 E5        30.05R
$$

LSZ147-162-211600-
LAKE SUPERIOR

STATION/POSITION TIME  TEMP    WIND        PRES    WAVE
                       AIR SEA DIR/SP/G            HT/PER
                 (UTC) (F)     (DEG/KT/KT) (MB)    (FT/S)
W MID LAKE BUOY  1450   54 54   70/  4/  4 1017.7S   1
DEVILS ISLAND    1500   59      60/  4/  6 1017.6R
SAXON HARBOR     1440   60     280/  2/  3 1016.6F
$$

LMZ867-665-643>646-211600-
LAKE MICHIGAN

STATION/POSITION TIME  TEMP    WIND        PRES    WAVE
                       AIR SEA DIR/SP/G            HT/PER
                 (UTC) (F)     (DEG/KT/KT) (MB)    (FT/S)
S GREEN BAY BUOY 1500   67 66   40/  8/ 10 1017.0
N MID LAKE BUOY  1450   66 65   30/  8/  8 1016.9R   2/ 6
NORTHPORT PIER   1440   67     340/  8/ 11 1016.6S
KEWAUNEE LAKESHO 1454   67      20/  3/  6 1016.0S
SHEBOYGAN LAKESH 1500   70     360/  7/  8 1016.1S
PORT WASHINGTON  1430   74      40/  3/  4 1017.6R
ATWATER BUOY     1409   68 67  280/  4/  6 1017.3R
MILWAUKEE LAKESH 1500   70      60/  5/  5   N/A
S MID LAKE BUOY  1450   71 69  240/  8/ 10 1016.9R   1/ 3
KENOSHA   LAKESH 1500   74     160/  3/  5 1016.9
$$

TC  - TEMPERATURE IN CELSIUS
VSB - VISIBILITY IN STATUTE MILES
WCI - WIND CHILL INDEX
HX  - HEAT INDEX




USA.gov is the U.S. government's official web portal to all federal, state and local government web resources and services.